[[{"header":{"parameterUnit":"m.s-1","parameterCategory":1,"la1":30.2991,"la2":30.254,"lo1":-89.0895,"lo2":-89.0444,"dy":0.0017,"dx":0.0017,"nx":28,"ny":28,"refTime":"2024-02-29T03:00:00:Z","depth":0,"parameterNumber":2,"parameterNumberName":"U-component_of_WINDS"},"data":[0,0,0,0,0,0,0,0,0,0,0,0,0,0,0,0,0,0,0,0,0,0,0,0,0,0,0,0,0,0,0,0,0,0,0,0,0,0,0,0,0,0,0,0,0,0,0,0,0,0,0,0,0,0,0,0,0,0,-4.6003,-4.6004,0,-4.6072,-4.6073,-4.6074,-4.5985,-4.5982,-4.5979,-4.5976,-4.6048,-4.6053,-4.6058,0,0,0,0,0,0,0,0,0,0,0,0,0,-4.5796,-4.58,-4.6003,-4.6004,-4.6005,-4.6072,-4.6073,-4.6074,-4.5986,-4.5982,-4.5978,-4.5974,-4.6047,-4.6052,-4.6058,0,0,0,0,0,0,0,0,0,0,0,0,0,-4.5877,-4.5801,-4.6003,-4.5969,-4.5966,-4.6072,-4.6073,-4.6074,-4.5987,-4.5982,-4.5977,-4.5973,-4.6045,-4.6052,-4.6059,-4.6202,0,0,-4.6082,-4.6085,0,0,0,0,0,0,0,0,-4.5873,-4.5885,-4.5973,-4.5971,-4.5969,-4.6015,-4.6026,-4.6117,-4.5988,-4.5979,-4.5976,-4.597,-4.6041,-4.6049,-4.6072,-4.6205,-4.6208,-4.6082,-4.6087,-4.609,-4.6092,0,0,0,0,0,0,0,-4.5867,-4.5882,-4.603,-4.5974,-4.5972,-4.595,-4.5957,-4.6043,-4.6037,-4.5979,-4.5973,-4.5983,-4.6039,-4.6065,-4.6073,-4.6209,-4.6082,-4.6089,-4.6093,-4.6096,-4.6463,-4.6468,0,0,0,0,0,0,-4.5866,-4.5878,-4.6028,-4.6032,-4.5908,-4.5958,-4.5965,-4.6005,-4.6035,-4.6035,-4.5987,-4.5978,-4.6055,-4.6065,-4.6075,-4.6245,-4.609,-4.6097,-4.6101,-4.6458,-4.6464,-4.647,0,0,0,0,0,0,-4.5861,-4.588,-4.6025,-4.5953,-4.597,-4.5967,-4.6013,-4.6009,-4.6035,-4.6041,-4.6039,-4.6015,-4.6052,-4.6065,-4.6171,-4.6246,-4.61,-4.6107,-4.6451,-4.646,-4.6467,-4.6585,0,0,0,0,0,0,-4.5856,-4.5879,-4.5933,-4.5955,-4.5974,-4.612,-4.6017,-4.6014,-4.6048,-4.6038,-4.6066,-4.6067,-4.6049,-4.616,-4.6178,-4.6254,-4.6113,-4.6445,-4.6455,-4.6464,-4.6575,-4.6596,-4.6615,0,0,0,0,0,-4.5849,-4.5964,-4.5936,-4.5955,-4.6042,-4.6124,-4.6135,-4.6112,-4.6054,-4.6109,-4.6112,-4.6066,-4.6235,-4.6172,-4.6191,-4.627,-4.644,-4.6452,-4.6464,-4.6566,-4.6592,-4.6614,0,0,0,0,0,0,-4.5951,-4.5966,-4.5936,-4.6061,-4.6092,-4.6109,-4.6177,-4.6141,-4.6189,-4.6178,-4.6147,-4.6154,-4.6268,-4.6279,-4.6209,-4.641,-4.6328,-4.6344,-4.6399,-4.6424,-4.6444,-4.6439,-4.6119,0,0,0,0,0,-4.5988,-4.6053,-4.6063,-4.6173,-4.619,-4.6181,-4.6216,-4.6195,-4.6227,-4.6239,-4.625,-4.6283,-4.6343,-4.6384,-4.644,-4.6575,-4.6581,-4.6639,-4.6659,-4.6676,-4.6691,-4.6764,-4.6791,-4.6509,-4.6509,-4.6509,0,0,-4.6065,-4.6081,-4.6125,-4.6194,-4.6215,-4.6284,-4.6193,-4.6269,-4.6321,-4.6251,-4.6352,-4.6361,-4.6395,-4.6517,-4.6571,-4.653,-4.677,-4.6691,-4.6704,-4.671,-4.6779,-4.6806,-4.683,-4.6517,-4.6516,-4.6514,0,0,-4.6242,-4.626,-4.6354,-4.6378,-4.6411,-4.6404,-4.6427,-4.645,-4.6453,-4.6554,-4.6503,-4.6564,-4.6668,-4.6695,-4.6722,-4.6908,-4.6868,-4.6927,-4.7033,-4.7105,-4.7127,-4.7147,-4.7215,-4.7239,-4.6942,-4.6942,-4.6942,0,-4.6334,-4.6436,-4.6407,-4.6488,-4.652,-4.6459,-4.6555,-4.6578,-4.6629,-4.6653,-4.6606,-4.6736,-4.6754,-4.6882,-4.6928,-4.6951,-4.6977,-4.6925,-4.7126,-4.7145,-4.7163,-4.7228,-4.7253,-4.6949,-4.6948,-4.6948,-4.6947,0,-4.6548,-4.6619,-4.6691,-4.6741,-4.6781,-4.6869,-4.6854,-4.6898,-4.6873,-4.6872,-4.6975,-4.6995,-4.7054,-4.7082,-4.706,-4.7207,-4.7181,-4.7131,-4.7048,-4.7198,-4.7258,-4.7282,-4.6959,-4.6957,-4.6955,-4.6953,0,0,-4.6793,-4.6825,-4.6852,-4.6875,-4.6907,-4.6962,-4.7046,-4.7104,-4.7143,-4.7179,-4.725,-4.734,-4.7293,-4.7324,-4.7303,-4.7366,-4.7514,-4.7308,-4.7309,-4.7347,-4.768,-4.7719,-4.7748,-4.7487,-4.7491,-4.7495,-4.7677,0,-4.6971,-4.7118,-4.7094,-4.7236,-4.7302,-4.7245,-4.7319,-4.7347,-4.7348,-4.7404,-4.7404,-4.7469,-4.7402,-4.742,-4.748,-4.7484,-4.7581,-4.747,-4.7554,-4.7557,-4.7549,-4.7779,-4.7821,-4.7992,-4.7701,-4.7704,-4.7707,0,-4.7199,-4.7243,-4.7392,-4.7414,-4.7441,-4.7508,-4.7559,-4.7613,-4.7644,-4.764,-4.7674,-4.7642,-4.7727,-4.7641,-4.7759,-4.7684,-4.7716,-4.7723,-4.7729,-4.7738,-4.7643,-4.7796,-4.8046,-4.8073,-4.7744,-4.7741,-4.7738,0,-4.7364,-4.7461,-4.7563,-4.7584,-4.7612,-4.766,-4.7674,-4.77,-4.7736,-4.778,-4.7803,-4.7857,-4.7887,-4.793,-4.7913,-4.7852,-4.8035,-4.7947,-4.8035,-4.8036,-4.8078,-4.8076,-4.8339,-4.8096,-4.8095,-4.8095,-4.8094,0,-4.7567,-4.7661,-4.7638,-4.7701,-4.7804,-4.7776,-4.7879,-4.7886,-4.791,-4.7973,-4.7926,-4.7987,-4.796,-4.802,-4.8007,-4.8107,-4.812,-4.812,-4.8116,-4.8126,-4.8126,-4.8148,-4.8137,-4.8102,-4.81,-4.8099,-4.8098,0,-4.777,-4.7759,-4.7866,-4.7884,-4.789,-4.7966,-4.7981,-4.804,-4.8036,-4.8117,-4.8135,-4.813,-4.8197,-4.8184,-4.8258,-4.8249,-4.8375,-4.8355,-4.8365,-4.8361,-4.845,-4.8443,-4.8738,-4.8776,-4.8507,-4.851,-4.8512,0,-4.7901,-4.7972,-4.7997,-4.8036,-4.8053,-4.8117,-4.8153,-4.8128,-4.8168,-4.8208,-4.8263,-4.8325,-4.8374,-4.8484,-4.8488,-4.8544,-4.8526,-4.8626,-4.8535,-4.8542,-4.853,-4.8527,-4.8534,-4.8645,-4.8648,-4.8651,-4.8653,0,-4.8136,-4.8126,-4.818,-4.8233,-4.8278,-4.8318,-4.8353,-4.8388,-4.8365,-4.8413,-4.8481,-4.8519,-4.8594,-4.8657,-4.871,-4.8724,-4.8686,-4.8681,-4.8704,-4.8716,-4.872,-4.872,-4.8416,-4.8675,-4.8673,-4.8671,-4.867,-4.8669,-4.8308,-4.8369,-4.8396,-4.8457,-4.8481,-4.8516,-4.8572,-4.8575,-4.8631,-4.8691,-4.8672,-4.875,-4.8778,-4.8844,-4.8865,-4.8926,-4.8889,-4.8923,-4.8932,-4.8941,-4.8953,-4.8708,-4.8935,-4.8934,-4.8934,-4.8933,-4.8933,0,-4.8541,-4.8556,-4.8613,-4.8664,-4.8713,-4.867,-4.8707,-4.8752,-4.882,-4.885,-4.8899,-4.8977,-4.9038,-4.9046,-4.9104,-4.9151,-4.9135,-4.9168,-4.9165,-4.9169,-4.8981,-4.8956,-4.918,-4.918,-4.918,-4.918,-4.918,-4.918,-4.8669,-4.8769,-4.8763,-4.8875,-4.8888,-4.8964,-4.8989,-4.902,-4.9044,-4.9133,-4.9184,-4.9188,-4.9209,-4.9268,-4.9322,-4.9323,-4.9347,-4.9387,-4.9382,-4.9207,-4.9182,-4.9159,-4.9135,-4.9392,-4.9393,-4.9564,-4.9566,-4.9567]},{"header":{"parameterUnit":"m.s-1","parameterCategory":1,"la1":30.2991,"la2":30.254,"lo1":-89.0895,"lo2":-89.0444,"dy":0.0017,"dx":0.0017,"nx":28,"ny":28,"refTime":"2024-02-29T03:00:00:Z","depth":0,"parameterNumber":3,"parameterNumberName":"V-component_of_WINDS"},"data":[0,0,0,0,0,0,0,0,0,0,0,0,0,0,0,0,0,0,0,0,0,0,0,0,0,0,0,0,0,0,0,0,0,0,0,0,0,0,0,0,0,0,0,0,0,0,0,0,0,0,0,0,0,0,0,0,0,0,-4.383,-4.383,0,-4.3897,-4.3898,-4.3899,-4.3878,-4.3877,-4.3876,-4.3874,-4.394,-4.3943,-4.3946,0,0,0,0,0,0,0,0,0,0,0,0,0,-4.3678,-4.3681,-4.383,-4.383,-4.3831,-4.3897,-4.3898,-4.3899,-4.3879,-4.3877,-4.3875,-4.3874,-4.3939,-4.3943,-4.3946,0,0,0,0,0,0,0,0,0,0,0,0,0,-4.3745,-4.3682,-4.3829,-4.3829,-4.383,-4.3897,-4.3898,-4.3899,-4.3879,-4.3877,-4.3875,-4.3873,-4.3938,-4.3942,-4.3947,-4.4017,0,0,-4.3961,-4.3963,0,0,0,0,0,0,0,0,-4.3741,-4.375,-4.3828,-4.3829,-4.383,-4.3877,-4.3869,-4.3939,-4.388,-4.386,-4.3874,-4.3872,-4.3921,-4.3927,-4.3944,-4.402,-4.4023,-4.3961,-4.3964,-4.3966,-4.3967,0,0,0,0,0,0,0,-4.3736,-4.3747,-4.3856,-4.3829,-4.3831,-4.3824,-4.3831,-4.3882,-4.3901,-4.3862,-4.386,-4.3869,-4.3921,-4.3939,-4.3945,-4.4024,-4.3961,-4.3965,-4.3968,-4.397,-4.416,-4.4162,0,0,0,0,0,0,-4.3732,-4.3744,-4.3854,-4.3858,-4.378,-4.3829,-4.3837,-4.3864,-4.3901,-4.3904,-4.3871,-4.3868,-4.3933,-4.394,-4.3947,-4.4031,-4.3966,-4.397,-4.3973,-4.4158,-4.4161,-4.4163,0,0,0,0,0,0,-4.3729,-4.3742,-4.3851,-4.3801,-4.3814,-4.3834,-4.3865,-4.3867,-4.3885,-4.3908,-4.391,-4.3887,-4.3931,-4.3941,-4.4,-4.4033,-4.3972,-4.3977,-4.4155,-4.4159,-4.4162,-4.4201,0,0,0,0,0,0,-4.3724,-4.3741,-4.3769,-4.3802,-4.3817,-4.3904,-4.3867,-4.387,-4.3894,-4.3891,-4.3923,-4.3926,-4.393,-4.3993,-4.4005,-4.4039,-4.398,-4.4152,-4.4157,-4.4161,-4.4196,-4.4205,-4.4212,0,0,0,0,0,-4.3719,-4.3777,-4.3771,-4.3784,-4.3853,-4.3906,-4.3915,-4.3919,-4.3897,-4.3924,-4.3938,-4.3925,-4.4028,-4.4,-4.4012,-4.4048,-4.415,-4.4156,-4.4161,-4.4193,-4.4203,-4.4212,0,0,0,0,0,0,-4.3747,-4.3781,-4.3775,-4.3845,-4.3873,-4.3903,-4.3938,-4.393,-4.3965,-4.396,-4.3963,-4.397,-4.4031,-4.4045,-4.4013,-4.4117,-4.4086,-4.4093,-4.4106,-4.4116,-4.4124,-4.4119,-4.3984,0,0,0,0,0,-4.3761,-4.3803,-4.383,-4.3889,-4.3904,-4.3919,-4.3942,-4.3943,-4.3972,-4.3983,-4.4001,-4.4029,-4.4067,-4.4092,-4.4129,-4.4198,-4.4204,-4.4229,-4.4237,-4.4243,-4.425,-4.4287,-4.4298,-4.418,-4.418,-4.418,0,0,-4.3791,-4.3815,-4.3841,-4.3896,-4.3918,-4.396,-4.3929,-4.3975,-4.4005,-4.399,-4.4047,-4.4061,-4.4092,-4.4156,-4.4185,-4.417,-4.4284,-4.425,-4.4255,-4.4258,-4.4293,-4.4304,-4.4314,-4.4184,-4.4183,-4.4183,0,0,-4.3867,-4.389,-4.3941,-4.3964,-4.3998,-4.4007,-4.4019,-4.405,-4.4059,-4.4117,-4.4106,-4.4141,-4.4207,-4.4229,-4.4249,-4.4332,-4.4321,-4.4344,-4.4385,-4.4421,-4.443,-4.4438,-4.4467,-4.4477,-4.435,-4.4351,-4.4351,0,-4.39,-4.3964,-4.3968,-4.4016,-4.4039,-4.4027,-4.4078,-4.41,-4.4143,-4.4159,-4.4141,-4.4224,-4.4243,-4.4312,-4.4332,-4.4349,-4.4362,-4.434,-4.4429,-4.4437,-4.4444,-4.4472,-4.4483,-4.4353,-4.4353,-4.4352,-4.4352,0,-4.4002,-4.4047,-4.4084,-4.4127,-4.4155,-4.4203,-4.4214,-4.4241,-4.4239,-4.4249,-4.4307,-4.433,-4.4371,-4.4387,-4.4385,-4.4455,-4.4444,-4.4428,-4.4396,-4.4458,-4.4484,-4.4494,-4.4357,-4.4356,-4.4355,-4.4354,0,0,-4.4098,-4.4143,-4.4156,-4.4175,-4.4211,-4.4245,-4.4292,-4.4333,-4.4356,-4.4385,-4.4424,-4.448,-4.4465,-4.4487,-4.4487,-4.4519,-4.4582,-4.4498,-4.4499,-4.4512,-4.4659,-4.4671,-4.4683,-4.4575,-4.4577,-4.4578,-4.4656,0,-4.4177,-4.4262,-4.4266,-4.4343,-4.4383,-4.4372,-4.4413,-4.4439,-4.4449,-4.4484,-4.4495,-4.4534,-4.4511,-4.4524,-4.4555,-4.4568,-4.4611,-4.4562,-4.461,-4.4611,-4.4602,-4.4697,-4.471,-4.4783,-4.4666,-4.4668,-4.4669,0,-4.428,-4.4314,-4.4395,-4.4424,-4.4441,-4.4479,-4.4515,-4.4549,-4.4577,-4.4582,-4.4607,-4.4602,-4.4649,-4.4616,-4.4679,-4.4646,-4.4665,-4.4674,-4.4677,-4.4681,-4.4644,-4.4703,-4.4806,-4.4817,-4.4685,-4.4684,-4.4683,0,-4.4342,-4.4407,-4.4464,-4.4481,-4.4516,-4.4542,-4.4558,-4.4584,-4.4608,-4.4639,-4.4654,-4.4691,-4.471,-4.4738,-4.4743,-4.4718,-4.4806,-4.4773,-4.4811,-4.4811,-4.483,-4.4828,-4.4936,-4.4843,-4.4843,-4.4842,-4.4842,0,-4.4429,-4.4479,-4.4492,-4.4527,-4.4581,-4.4585,-4.4639,-4.4652,-4.4675,-4.4711,-4.4703,-4.4737,-4.4742,-4.4776,-4.478,-4.4831,-4.484,-4.4845,-4.4845,-4.4846,-4.4845,-4.4858,-4.4853,-4.4845,-4.4845,-4.4844,-4.4844,0,-4.4507,-4.4518,-4.4579,-4.4608,-4.4616,-4.4655,-4.4678,-4.4711,-4.472,-4.4766,-4.4777,-4.4791,-4.4831,-4.4838,-4.4885,-4.4887,-4.4949,-4.4944,-4.494,-4.4939,-4.4976,-4.4972,-4.5096,-4.5112,-4.5008,-4.5009,-4.501,0,-4.4562,-4.46,-4.4633,-4.4657,-4.4674,-4.4713,-4.4737,-4.4742,-4.4767,-4.4801,-4.4829,-4.4868,-4.49,-4.4964,-4.4977,-4.5013,-4.5008,-4.5049,-4.5014,-4.5012,-4.5008,-4.5006,-4.5009,-4.5056,-4.5057,-4.5058,-4.5059,0,-4.4658,-4.4662,-4.4697,-4.4735,-4.4764,-4.4794,-4.4822,-4.4841,-4.4849,-4.4878,-4.4919,-4.4944,-4.4991,-4.503,-4.5065,-4.5079,-4.507,-4.507,-4.5081,-4.5081,-4.5077,-4.5079,-4.4958,-4.5067,-4.5066,-4.5066,-4.5065,-4.5065,-4.4726,-4.4759,-4.4787,-4.4827,-4.4848,-4.4874,-4.4906,-4.4919,-4.4954,-4.4994,-4.4994,-4.5039,-4.5064,-4.5111,-4.5127,-4.5161,-4.5148,-4.5163,-4.5167,-4.5171,-4.5174,-4.5072,-4.5167,-4.5167,-4.5167,-4.5167,-4.5167,0,-4.4821,-4.4839,-4.4875,-4.4915,-4.4946,-4.4935,-4.4965,-4.4991,-4.5031,-4.5056,-4.5087,-4.5134,-4.5171,-4.5187,-4.5223,-4.5247,-4.5244,-4.5256,-4.5254,-4.5258,-4.5184,-4.5171,-4.5258,-4.5258,-4.5258,-4.5258,-4.5258,-4.5258,-4.4874,-4.4929,-4.4936,-4.5,-4.5017,-4.5062,-4.508,-4.5103,-4.5123,-4.5175,-4.5206,-4.5217,-4.5238,-4.5275,-4.5308,-4.5312,-4.5325,-4.534,-4.5341,-4.5272,-4.5263,-4.5254,-4.5242,-4.5343,-4.5343,-4.5412,-4.5413,-4.5413]}]]